Time,TemperatureF,DewpointF,PressureIn,WindDirection,WindDirectionDegrees,WindSpeedMPH,WindSpeedGustMPH,Humidity,HourlyPrecipIn,Conditions,Clouds,dailyrainin,SoftwareType,DateUTC
2013-01-07 00:03:00,37.9,27.2,30.09,ESE,112,0.0,-999.0,65,-99.99,,,0.00,Acu-Link.com,2013-01-07 05:03:00,
2013-01-07 00:18:00,36.7,26.4,30.09,West,270,2.2,-999.0,66,-99.99,,,0.00,Acu-Link.com,2013-01-07 05:18:00,
2013-01-07 00:33:00,36.0,26.5,30.09,NNE,22,0.0,-999.0,68,-99.99,,,0.00,Acu-Link.com,2013-01-07 05:33:00,
2013-01-07 00:48:00,35.4,26.3,30.09,SW,225,0.0,-999.0,69,-99.99,,,0.00,Acu-Link.com,2013-01-07 05:48:00,
2013-01-07 01:03:00,34.9,26.1,30.10,SW,225,0.0,-999.0,70,-99.99,,,0.00,Acu-Link.com,2013-01-07 06:03:00,
2013-01-07 01:18:00,34.3,26.2,30.09,NE,45,0.0,-999.0,72,-99.99,,,0.00,Acu-Link.com,2013-01-07 06:18:00,
2013-01-07 01:34:00,33.1,26.1,30.10,SW,225,1.1,-999.0,75,-99.99,,,0.00,Acu-Link.com,2013-01-07 06:34:00,
2013-01-07 01:49:00,32.5,25.5,30.10,West,270,0.0,-999.0,75,-99.99,,,0.00,Acu-Link.com,2013-01-07 06:49:00,
2013-01-07 02:04:00,31.8,24.8,30.11,NNW,337,0.0,-999.0,75,-99.99,,,0.00,Acu-Link.com,2013-01-07 07:04:00,
2013-01-07 02:19:00,31.3,24.6,30.10,SE,135,0.0,-999.0,76,-99.99,,,0.00,Acu-Link.com,2013-01-07 07:19:00,
2013-01-07 02:34:00,30.9,24.6,30.11,SW,225,0.0,-999.0,77,-99.99,,,0.00,Acu-Link.com,2013-01-07 07:34:00,
2013-01-07 02:49:00,30.4,24.4,30.11,East,90,1.7,-999.0,78,-99.99,,,0.00,Acu-Link.com,2013-01-07 07:49:00,
2013-01-07 03:04:00,30.0,24.0,30.12,West,270,0.0,-999.0,78,-99.99,,,0.00,Acu-Link.com,2013-01-07 08:04:00,
2013-01-07 03:19:00,29.7,24.0,30.13,ENE,67,0.0,-999.0,79,-99.99,,,0.00,Acu-Link.com,2013-01-07 08:19:00,
2013-01-07 03:34:00,29.3,23.6,30.13,East,90,0.0,-999.0,79,-99.99,,,0.00,Acu-Link.com,2013-01-07 08:34:00,
2013-01-07 03:50:00,29.1,23.4,30.14,ESE,112,0.0,-999.0,79,-99.99,,,0.00,Acu-Link.com,2013-01-07 08:50:00,
2013-01-07 04:08:00,29.1,23.4,30.14,ENE,67,0.0,-999.0,79,-99.99,,,0.00,Acu-Link.com,2013-01-07 09:08:00,
2013-01-07 04:23:00,28.9,22.9,30.15,ESE,112,0.0,-999.0,78,-99.99,,,0.00,Acu-Link.com,2013-01-07 09:23:00,
2013-01-07 04:39:00,28.4,22.7,30.15,ESE,112,0.0,-999.0,79,-99.99,,,0.00,Acu-Link.com,2013-01-07 09:39:00,
2013-01-07 04:54:00,28.4,23.0,30.15,WNW,292,0.0,-999.0,80,-99.99,,,0.00,Acu-Link.com,2013-01-07 09:54:00,
2013-01-07 05:09:00,28.2,23.1,30.17,East,90,0.0,-999.0,81,-99.99,,,0.00,Acu-Link.com,2013-01-07 10:09:00,
2013-01-07 05:24:00,28.2,23.1,30.17,ESE,112,0.0,-999.0,81,-99.99,,,0.00,Acu-Link.com,2013-01-07 10:24:00,
2013-01-07 05:39:00,28.0,22.6,30.17,ESE,112,0.0,-999.0,80,-99.99,,,0.00,Acu-Link.com,2013-01-07 10:39:00,
2013-01-07 05:54:00,27.9,22.5,30.18,SSW,202,0.0,-999.0,80,-99.99,,,0.00,Acu-Link.com,2013-01-07 10:54:00,
2013-01-07 06:09:00,27.9,22.5,30.19,SW,225,0.0,-999.0,80,-99.99,,,0.00,Acu-Link.com,2013-01-07 11:09:00,
2013-01-07 06:24:00,27.7,22.4,30.19,ESE,112,0.0,-999.0,80,-99.99,,,0.00,Acu-Link.com,2013-01-07 11:24:00,
2013-01-07 06:39:00,27.5,22.7,30.19,NNW,337,0.0,-999.0,82,-99.99,,,0.00,Acu-Link.com,2013-01-07 11:39:00,
2013-01-07 06:55:00,27.5,22.2,30.21,West,270,0.0,-999.0,80,-99.99,,,0.00,Acu-Link.com,2013-01-07 11:55:00,
2013-01-07 07:10:00,27.1,22.1,30.21,South,180,0.0,-999.0,81,-99.99,,,0.00,Acu-Link.com,2013-01-07 12:10:00,
2013-01-07 07:25:00,27.0,21.4,30.21,East,90,0.0,-999.0,79,-99.99,,,0.00,Acu-Link.com,2013-01-07 12:25:00,
2013-01-07 07:40:00,26.8,21.5,30.22,SSE,157,0.0,-999.0,80,-99.99,,,0.00,Acu-Link.com,2013-01-07 12:40:00,
2013-01-07 07:55:00,26.6,21.6,30.23,West,270,0.0,-999.0,81,-99.99,,,0.00,Acu-Link.com,2013-01-07 12:55:00,
2013-01-07 08:10:00,27.3,22.3,30.23,NNW,337,0.0,-999.0,81,-99.99,,,0.00,Acu-Link.com,2013-01-07 13:10:00,
2013-01-07 08:25:00,27.7,22.6,30.24,WNW,292,0.0,-999.0,81,-99.99,,,0.00,Acu-Link.com,2013-01-07 13:25:00,
2013-01-07 08:40:00,28.2,23.1,30.24,West,270,0.0,-999.0,81,-99.99,,,0.00,Acu-Link.com,2013-01-07 13:40:00,
2013-01-07 08:55:00,29.3,24.5,30.25,West,270,0.0,-999.0,82,-99.99,,,0.00,Acu-Link.com,2013-01-07 13:55:00,
2013-01-07 09:11:00,30.9,26.1,30.26,North,0,0.0,-999.0,82,-99.99,,,0.00,Acu-Link.com,2013-01-07 14:11:00,
2013-01-07 09:26:00,33.3,28.7,30.27,West,270,0.0,-999.0,83,-99.99,,,0.00,Acu-Link.com,2013-01-07 14:26:00,
2013-01-07 09:41:00,35.6,29.4,30.28,WSW,247,0.0,-999.0,78,-99.99,,,0.00,Acu-Link.com,2013-01-07 14:41:00,
2013-01-07 09:56:00,38.5,29.6,30.29,NW,315,1.1,-999.0,70,-99.99,,,0.00,Acu-Link.com,2013-01-07 14:56:00,
2013-01-07 10:11:00,41.2,28.0,30.29,West,270,1.1,-999.0,59,-99.99,,,0.00,Acu-Link.com,2013-01-07 15:11:00,
2013-01-07 10:26:00,42.4,28.3,30.31,NNE,22,0.0,-999.0,57,-99.99,,,0.00,Acu-Link.com,2013-01-07 15:26:00,
2013-01-07 10:41:00,43.9,27.9,30.31,East,90,1.7,-999.0,53,-99.99,,,0.00,Acu-Link.com,2013-01-07 15:41:00,
2013-01-07 10:56:00,44.6,27.1,30.31,ENE,67,1.7,-999.0,50,-99.99,,,0.00,Acu-Link.com,2013-01-07 15:56:00,
2013-01-07 11:11:00,45.1,26.6,30.31,ESE,112,2.7,-999.0,48,-99.99,,,0.00,Acu-Link.com,2013-01-07 16:11:00,
2013-01-07 11:27:00,45.7,27.1,30.30,NNW,337,0.0,-999.0,48,-99.99,,,0.00,Acu-Link.com,2013-01-07 16:27:00,
2013-01-07 11:42:00,46.4,26.8,30.29,East,90,1.7,-999.0,46,-99.99,,,0.00,Acu-Link.com,2013-01-07 16:42:00,
2013-01-07 11:57:00,46.9,25.6,30.28,North,0,1.1,-999.0,43,-99.99,,,0.00,Acu-Link.com,2013-01-07 16:57:00,
2013-01-07 12:12:00,48.0,25.4,30.27,NE,45,1.7,-999.0,41,-99.99,,,0.00,Acu-Link.com,2013-01-07 17:12:00,
2013-01-07 12:27:00,50.9,25.6,30.27,ENE,67,1.1,-999.0,37,-99.99,,,0.00,Acu-Link.com,2013-01-07 17:27:00,
2013-01-07 12:42:00,51.3,24.6,30.26,SSW,202,1.7,-999.0,35,-99.99,,,0.00,Acu-Link.com,2013-01-07 17:42:00,
2013-01-07 12:57:00,52.7,25.1,30.25,ENE,67,2.2,-999.0,34,-99.99,,,0.00,Acu-Link.com,2013-01-07 17:57:00,
2013-01-07 13:12:00,52.2,25.4,30.25,East,90,1.7,-999.0,35,-99.99,,,0.00,Acu-Link.com,2013-01-07 18:12:00,
2013-01-07 13:27:00,52.2,24.7,30.23,SSE,157,0.0,-999.0,34,-99.99,,,0.00,Acu-Link.com,2013-01-07 18:27:00,
2013-01-07 13:43:00,52.7,22.9,30.23,SSW,202,1.7,-999.0,31,-99.99,,,0.00,Acu-Link.com,2013-01-07 18:43:00,
2013-01-07 13:58:00,53.2,24.1,30.22,WSW,247,1.1,-999.0,32,-99.99,,,0.00,Acu-Link.com,2013-01-07 18:58:00,
2013-01-07 14:13:00,52.9,22.3,30.22,ESE,112,1.7,-999.0,30,-99.99,,,0.00,Acu-Link.com,2013-01-07 19:13:00,
2013-01-07 14:28:00,54.1,23.4,30.22,ENE,67,0.0,-999.0,30,-99.99,,,0.00,Acu-Link.com,2013-01-07 19:28:00,
2013-01-07 14:43:00,54.1,23.4,30.22,SSW,202,0.0,-999.0,30,-99.99,,,0.00,Acu-Link.com,2013-01-07 19:43:00,
2013-01-07 14:58:00,53.6,23.7,30.22,ESE,112,0.0,-999.0,31,-99.99,,,0.00,Acu-Link.com,2013-01-07 19:58:00,
2013-01-07 15:13:00,53.1,22.5,30.22,South,180,0.0,-999.0,30,-99.99,,,0.00,Acu-Link.com,2013-01-07 20:13:00,
2013-01-07 15:28:00,54.0,21.6,30.22,NNE,22,2.2,-999.0,28,-99.99,,,0.00,Acu-Link.com,2013-01-07 20:28:00,
2013-01-07 15:43:00,53.1,22.5,30.23,ESE,112,0.0,-999.0,30,-99.99,,,0.00,Acu-Link.com,2013-01-07 20:43:00,
2013-01-07 15:58:00,52.0,23.8,30.23,East,90,1.7,-999.0,33,-99.99,,,0.00,Acu-Link.com,2013-01-07 20:58:00,
2013-01-07 16:14:00,51.3,24.6,30.24,South,180,0.0,-999.0,35,-99.99,,,0.00,Acu-Link.com,2013-01-07 21:14:00,
2013-01-07 16:29:00,50.5,25.2,30.24,East,90,1.7,-999.0,37,-99.99,,,0.00,Acu-Link.com,2013-01-07 21:29:00,
2013-01-07 16:44:00,49.6,24.4,30.24,ENE,67,0.0,-999.0,37,-99.99,,,0.00,Acu-Link.com,2013-01-07 21:44:00,
2013-01-07 16:59:00,48.9,25.0,30.24,ESE,112,0.0,-999.0,39,-99.99,,,0.00,Acu-Link.com,2013-01-07 21:59:00,
2013-01-07 17:14:00,48.0,24.8,30.25,East,90,0.0,-999.0,40,-99.99,,,0.00,Acu-Link.com,2013-01-07 22:14:00,
2013-01-07 17:29:00,46.9,25.0,30.25,NW,315,0.0,-999.0,42,-99.99,,,0.00,Acu-Link.com,2013-01-07 22:29:00,
2013-01-07 17:44:00,45.5,24.9,30.25,West,270,0.0,-999.0,44,-99.99,,,0.00,Acu-Link.com,2013-01-07 22:44:00,
2013-01-07 17:59:00,44.1,25.2,30.24,North,0,0.0,-999.0,47,-99.99,,,0.00,Acu-Link.com,2013-01-07 22:59:00,
2013-01-07 18:14:00,42.6,25.8,30.25,NW,315,0.0,-999.0,51,-99.99,,,0.00,Acu-Link.com,2013-01-07 23:14:00,
2013-01-07 18:30:00,41.4,26.5,30.25,NNW,337,0.0,-999.0,55,-99.99,,,0.00,Acu-Link.com,2013-01-07 23:30:00,
2013-01-07 18:45:00,40.1,26.9,30.25,SE,135,0.0,-999.0,59,-99.99,,,0.00,Acu-Link.com,2013-01-07 23:45:00,
2013-01-07 19:00:00,39.2,26.9,30.25,ESE,112,0.0,-999.0,61,-99.99,,,0.00,Acu-Link.com,2013-01-08 00:00:00,
2013-01-07 19:15:00,37.9,26.1,30.25,WNW,292,0.0,-999.0,62,-99.99,,,0.00,Acu-Link.com,2013-01-08 00:15:00,
2013-01-07 19:30:00,37.0,26.3,30.25,ESE,112,0.0,-999.0,65,-99.99,,,0.00,Acu-Link.com,2013-01-08 00:30:00,
2013-01-07 19:45:00,36.3,26.4,30.25,SW,225,0.0,-999.0,67,-99.99,,,0.00,Acu-Link.com,2013-01-08 00:45:00,
2013-01-07 20:00:00,35.6,26.1,30.27,ESE,112,0.0,-999.0,68,-99.99,,,0.00,Acu-Link.com,2013-01-08 01:00:00,
2013-01-07 20:15:00,35.1,26.7,30.26,NW,315,0.0,-999.0,71,-99.99,,,0.00,Acu-Link.com,2013-01-08 01:15:00,
2013-01-07 20:30:00,34.7,26.6,30.26,NNW,337,0.0,-999.0,72,-99.99,,,0.00,Acu-Link.com,2013-01-08 01:30:00,
2013-01-07 20:46:00,34.3,26.2,30.26,NNW,337,0.0,-999.0,72,-99.99,,,0.00,Acu-Link.com,2013-01-08 01:46:00,
2013-01-07 21:01:00,33.6,25.9,30.26,SSW,202,0.0,-999.0,73,-99.99,,,0.00,Acu-Link.com,2013-01-08 02:01:00,
2013-01-07 21:16:00,33.3,25.6,30.26,ESE,112,0.0,-999.0,73,-99.99,,,0.00,Acu-Link.com,2013-01-08 02:16:00,
2013-01-07 21:31:00,32.7,25.3,30.27,SW,225,0.0,-999.0,74,-99.99,,,0.00,Acu-Link.com,2013-01-08 02:31:00,
2013-01-07 21:46:00,32.2,25.2,30.27,WSW,247,0.0,-999.0,75,-99.99,,,0.00,Acu-Link.com,2013-01-08 02:46:00,
2013-01-07 22:01:00,31.8,24.5,30.28,WSW,247,0.0,-999.0,74,-99.99,,,0.00,Acu-Link.com,2013-01-08 03:01:00,
2013-01-07 22:16:00,31.3,24.6,30.27,SE,135,0.0,-999.0,76,-99.99,,,0.00,Acu-Link.com,2013-01-08 03:16:00,
2013-01-07 22:31:00,30.9,24.6,30.28,SSW,202,0.0,-999.0,77,-99.99,,,0.00,Acu-Link.com,2013-01-08 03:31:00,
2013-01-07 22:46:00,30.9,24.2,30.28,SSW,202,0.0,-999.0,76,-99.99,,,0.00,Acu-Link.com,2013-01-08 03:46:00,
2013-01-07 23:02:00,30.6,24.0,30.28,SSW,202,0.0,-999.0,76,-99.99,,,0.00,Acu-Link.com,2013-01-08 04:02:00,
2013-01-07 23:17:00,29.8,23.2,30.27,NNW,337,0.0,-999.0,76,-99.99,,,0.00,Acu-Link.com,2013-01-08 04:17:00,
2013-01-07 23:32:00,29.7,23.7,30.27,ESE,112,0.0,-999.0,78,-99.99,,,0.00,Acu-Link.com,2013-01-08 04:32:00,
2013-01-07 23:47:00,29.5,23.2,30.27,SE,135,0.0,-999.0,77,-99.99,,,0.00,Acu-Link.com,2013-01-08 04:47:00,